Hourly Data Report for October 24, 2013

All times are specified in Local Standard Time (LST). Add 1 hour to adjust for Daylight Saving Time where and when it is observed.

CAPE DORSET A
NUNAVUT

64°13'49.000" N
76°31'30.000" W
48.20 m
2400637
71366
YTE

Download Data

Hourly Data (October 2013)
Hourly Data Report for October 24, 2013
Temp Definition
°C
Dew Point Temp Definition
°C
Rel Hum Definition
%
Wind Dir Definition
10's deg

Wind Spd Definition
km/h
Visibility Definition
km
Stn Press Definition
kPa
Hmdx Definition


Wind Chill Definition


Weather Definition


TIME
00:00 Legend Double Dagger -3.6 -4.9 91 2 22 16.1 100.43   -10 LegendNANA
01:00 Legend Double Dagger -3.3 -5.0 88 36 26 16.1 100.40   -10 LegendNANA
02:00 Legend Double Dagger -3.4 -5.1 88 1 22 16.1 100.39   -10 LegendNANA
03:00 Legend Double Dagger -3.6 -5.3 88 1 26 16.1 100.38   -11 LegendNANA
04:00 Legend Double Dagger -3.4 -5.2 88 1 26 16.1 100.38   -10 LegendNANA
05:00 Legend Double Dagger -3.3 -5.0 88 5 24 16.1 100.38   -10 LegendNANA
06:00 Legend Double Dagger -3.7 -5.4 88 2 24 16.1 100.38   -11 LegendNANA
07:00 Legend Double Dagger -3.5 -5.3 87 36 24 16.1 100.38   -10 LegendNANA
08:00 Legend Double Dagger -3.6 -5.6 86 3 24 16.1 100.37   -10 LegendNANA
09:00 Legend Double Dagger -3.5 -5.3 87 1 26 16.1 100.34   -11 LegendNANA
10:00 Legend Double Dagger -3.4 -5.1 88 3 13 16.1 100.31   -8 LegendNANA
11:00 Legend Double Dagger -3.3 -5.1 87 4 15 16.1 100.29   -8 LegendNANA
12:00 Legend Double Dagger -3.0 -5.1 86 3 15 16.1 100.28   -8 LegendNANA
13:00 Legend Double Dagger -2.8 -4.8 86 4 11 16.1 100.27   -7 LegendNANA
14:00 Legend Double Dagger -2.8 -5.1 84 4 17 16.1 100.26   -8 LegendNANA
15:00 Legend Double Dagger -2.7 -4.8 85 1 18 16.1 100.23   -8 LegendNANA
16:00 Legend Double Dagger -2.8 -4.6 88 36 17 16.1 100.23   -8 LegendNANA
17:00 Legend Double Dagger -2.9 -4.6 88 36 9 16.1 100.22   -6 LegendNANA
18:00 Legend Double Dagger -2.9 -4.8 87 33 13 16.1 100.20   -8 LegendNANA
19:00 Legend Double Dagger -3.1 -4.2 92 36 15 16.1 100.16   -8 LegendNANA
20:00 Legend Double Dagger -3.4 -4.5 92 1 9 16.1 100.14   -7 LegendNANA
21:00 Legend Double Dagger -3.8 -5.0 91 36 11 16.1 100.11   -8 LegendNANA
22:00 Legend Double Dagger -4.1 -5.1 93 1 5 16.1 100.05   -6 LegendNANA
23:00 Legend Double Dagger -4.3 -5.0 95 35 9 16.1 100.03   -8 LegendNANA

Notes on Data Quality.

Legend

  • E = Estimated
  • M = Missing
  • NA = Not Available
  • ‡ = Partner data that is not subject to review by the National Climate Archives
Date modified: